Showing default

YAOGAN-30 V, 46808

Orbit data source: Space-Track

YAOGAN-30 V, 46808 is a payload satellite owned by PLA SSF (CN) in LEO that was launched on Mon, 26 Oct 2020 UTC via a CHANG ZHENG 2C launch vehicle from the Xichang Space Center, China (XSC). Payload-class satellites include a variety of spacecraft equipped with specific instruments for various scientific and technological missions. These include communications satellites like Starlink; space stations such as the ISS; scientific satellites like the Hubble; Earth observation satellites from companies like Planet Labs, Umbra, and HawkEye 360; GPS; miniature CubeSats for education and research; and military/defense satellites.

Loading next visibility...
Identifier
46808, 2020-076B
Orbit
LEO
Country
Flag of CNCN / PRC
Related business
Manufacturer
SECM
Mission
Operational Defense Sigint
Bus & Motor
Unknown
Mass
~500 kg wet, ~500 kg dry
Launch date (UTC)
2020-10-26 (6 years ago)
Launch vehicle
CHANG ZHENG 2C
Launch site
Xichang Space Center, China (XSC)
Object type
Payload
Rocket body
Debris
Shape & HBR
Box + 2 Pan, 0.5 m
Radar Cross Section
0.446 m², Large (>1 m²)

Expand to show TLE details & history
Last TLE update: 11 hours ago

TLE from 11 hours ago
0 YAOGAN-30 V
1 46808U 20076B   26126.29890404  .00002820  00000-0  21011-3 0  9994
2 46808  34.9957 346.2661 0001413 313.7434  46.3157 15.02523549301924
Epoch: 2026-05-06T07:10Z
TLE epoch observation values (Epoch: 2026-05-06T07:10:25.309Z)
Latitude
-0.00001°
Longitude
14.49924°
Altitude
557.357 km
Speed
7.585 km/s
True Right ascension
23h 05m 03s
True Declination
0° 00' 00"
Sunlit
Object was in daylight at epoch
Visualization orbit readout
Latitude
Unknown
Longitude
Unknown
Altitude
Unknown
Speed
Unknown
Apparent Right ascension
Unknown
Apparent Declination
Unknown
Sunlit
N/A
Visualization observer readout
Local Sidereal Time
02:29:37
Azimuth
Unknown
Elevation
Unknown
Doppler factor
Unknown
Orbital elements
Apogee altitude
563.32 km
Perigee altitude
561.359 km
Semi-major axis
6,940.477 km
Eccentricity
0.00014
Inclination
34.9957°
RAAN
346.2661°
Arg. of periapsis
313.7434°
True anomaly
46.32741°
Mean anomaly
46.3157°
Eccentric anomaly
46.32156°
Mean motion
3.7537 °/min
Orbital period
95.91 mins
BSTAR
0.00021011
Loading maneuver chart data...
Computing Atmospheric mass density...
Loading historical data...
Loading historical data...
Loading historical data...
Loading historical data...
Loading historical data...
Loading historical data...
Loading historical data...
Other satellites on launch #76 in the year 2020 (2020-10-26 UTC)

Documentation

Showing up to 5 results
|